Aérodrome :
LOGIN :

S'inscrire | Disclaimer

   EN    FR    IT 

 










Légende :    VFR   VFR Marginal   IFR   IFR Intensif   IFR Très Intensif
Visi : 
Plafond : 
>= 8 km
>= 3000ft
5 à 8 km
1000 à 3000 ft
1500m à 5 km
500 à 1000 ft
800 à 1500m
200 à 500 ft
< 800m
< 200 ft
Symboles :   Orages  Brouillard  Fortes neiges  Fortes précipitations  Vent > 20 kt
SIGMETs :   Divers  Orages  Givrage  Turbulence  Onde Orograph.  Cendres Volcan.







- Altitude de l'aérodrome : 915 ft
- Code IATA : LUG


LSZA - Lugano

DERNIER METAR :
  • 240820Z 17003KT 130V220 CAVOK 20/11 Q1018 NOSIG

METARs EXPIRÉS :
  • 240750Z 19004KT 150V220 CAVOK 19/09 Q1018 NOSIG
  • 240720Z 20004KT CAVOK 18/10 Q1018 NOSIG
  • 240650Z 19004KT 120V220 CAVOK 17/10 Q1018 NOSIG
  • 240620Z VRB03KT CAVOK 14/10 Q1018 NOSIG
  • 240550Z VRB03KT CAVOK 13/10 Q1017 NOSIG

TAF TAF LSZA
Valide du 24 à 09h jusqu'au 24 à 18h UTC


240825Z 2409/2418 VRB03KT CAVOK
TEMPO 2412/2415 20010KT
BECMG 2416/2418 9999 FEW060
ATIS : +41 22 417 40 88
Pas de NOTAMs connus pour ce terrain.



MET'MAP, la Météo Aéronautique d'un coup d'oeil ! - Copyright ORBIFLY Décembre 2007 - Disclaimer

ORBIFLY MET'MAP TEAM :

Programmation & Développement : Alexandra Zaïnal
Conception & Développement : Baudouin d'Aumeries
Co-Programmation & Développement : Marc-Olivier Méhu
Soutien technique & logistique : Manuel Goepfert

Contact : metmap@orbifly.com




SOURCES & CREDITS :

   NOAA